Вернуться в каталог

STARLINK-36995

АктивенСвязьSSO
NORAD 68143·PAYLOAD·🇺🇸 United States

Запущен Mar 13, 2026 с Vandenberg Space Force Base

Loading…

Ближайшие Пролёты (ближайшие 24 часа)

TLE

СвежийSource: CelesTrak SupGP

Эпоха: Sep 14, 2026, 14:33 UTC

1 68143C 26049B   26257.60673611 -.00029676  00000+0 -92086-3 0  2571
2 68143  97.2839 277.6399 0001967 107.8287  30.7992 15.33465002    11

Отслеживайте STARLINK-36995 в реальном времени с AllMySat

Download on the App Store